GFSNE_925_spd_102.txt.gz
Wind_Speed
24 25 27 26 25 24 24 24 17 5 5 24 26 28 27 26 26 28 30 36 34 34 37 39 42 45 50 50 50 51 55 52 52 52 49 48 46 41
27 30 30 28 29 28 31 31 31 22 8 26 27 29 28 24 24 28 32 27 31 32 35 36 38 39 40 43 46 47 52 52 50 48 50 42 41 38
28 29 29 30 33 35 34 33 34 29 18 28 30 33 26 23 27 23 22 25 26 28 32 32 33 34 34 33 31 32 33 35 38 40 39 37 35 31
31 30 33 36 38 38 36 35 33 33 25 24 25 9 9 11 11 13 13 13 14 16 15 16 16 17 16 14 13 15 18 19 21 23 24 23 24 25
29 31 32 31 35 35 32 30 28 29 24 16 5 1 1 4 6 6 7 8 9 8 9 10 10 12 13 14 13 11 10 13 14 16 20 24 29 31
35 30 29 27 26 23 21 20 17 8 4 2 5 6 8 8 7 14 13 14 13 10 10 13 16 18 18 17 17 17 18 17 17 18 23 26 25 25
27 22 18 16 17 16 14 9 4 6 8 10 9 10 10 11 13 13 14 18 8 12 22 22 23 22 22 19 16 19 22 24 25 27 27 28 27 29
24 17 13 11 9 11 11 10 10 13 16 13 16 12 13 10 11 14 16 11 6 9 23 26 19 18 18 16 22 25 21 16 17 19 22 20 21 24
23 21 18 19 20 23 24 26 25 25 21 19 22 13 13 11 10 13 13 11 7 16 20 11 11 21 24 25 30 22 16 22 24 26 27 28 30 32
20 20 22 21 21 21 21 24 24 22 21 19 19 14 12 9 10 9 10 10 10 10 18 5 17 21 24 26 16 15 20 25 29 32 32 31 31 31
24 23 23 23 21 23 24 26 26 26 20 21 19 16 17 15 14 13 18 13 7 9 18 16 17 25 22 16 15 20 27 32 31 29 30 32 31 30
28 25 22 23 21 21 25 23 21 17 13 15 15 16 14 15 17 18 17 13 11 7 17 19 17 21 10 7 26 22 25 21 26 32 33 30 27 29
31 30 27 23 22 22 21 20 17 13 13 14 16 16 16 17 18 17 16 14 12 8 16 16 16 16 13 23 15 23 21 31 28 28 27 26 28 28
31 32 26 27 26 19 20 18 15 14 13 15 20 19 18 18 16 16 14 13 12 10 14 15 15 17 19 23 21 22 26 27 25 22 24 29 34 33
27 28 28 27 26 25 17 14 14 15 17 22 19 16 14 12 12 15 14 15 15 13 13 16 17 19 19 20 23 28 30 28 18 29 28 28 30 30
29 26 25 21 22 20 17 14 17 17 19 18 15 12 13 14 14 15 14 17 17 18 14 16 18 20 23 22 24 28 26 20 32 29 31 31 29 26
27 25 21 18 17 15 17 18 17 17 18 15 14 13 14 14 14 15 15 16 15 17 21 21 21 20 21 23 25 25 28 29 30 32 32 32 29 26
22 20 21 17 15 15 17 17 16 15 13 13 12 12 13 14 16 16 16 17 16 18 21 23 25 26 23 19 17 25 28 30 34 32 30 29 31 28
28 22 20 17 14 14 15 15 15 12 11 11 11 13 14 15 17 17 17 18 17 18 19 22 23 22 11 14 27 16 31 33 33 30 29 28 30 34
23 21 18 15 14 14 13 12 10 10 10 11 11 12 15 17 18 17 15 17 18 20 22 20 20 21 21 16 31 46 31 31 29 31 31 31 31 34
20 17 14 14 13 12 9 7 7 8 10 9 10 13 16 17 17 18 19 19 19 18 21 22 24 27 28 30 25 33 40 32 30 33 33 28 24 27
17 16 12 11 10 7 5 4 5 7 8 9 11 13 16 18 19 19 20 20 20 19 22 26 27 28 26 24 27 33 39 43 41 30 26 25 20 4
15 12 10 8 6 4 4 4 5 5 6 8 11 15 20 19 18 19 20 20 19 22 22 27 28 26 26 25 28 30 35 38 35 37 26 5 7 13

GFSNE_925_spd_108.txt.gz
Wind_Speed
24 21 20 17 13 8 9 9 5 2 3 20 13 18 18 18 19 21 22 24 25 27 24 24 26 24 20 19 19 21 23 24 27 28 30 32 33 31
30 24 17 18 14 13 14 15 16 13 3 18 22 21 18 17 19 18 16 20 19 21 20 21 20 18 16 15 16 16 14 15 17 19 22 24 24 24
28 29 33 28 24 20 18 20 21 20 12 20 15 14 13 14 14 14 9 6 2 4 6 5 5 6 7 9 10 12 13 14 16 17 17 18 18 18
35 33 34 32 30 26 25 25 22 28 19 18 16 16 13 10 6 5 5 5 4 5 8 12 14 14 11 10 12 14 17 19 18 19 21 22 24 23
36 37 40 34 34 30 27 25 25 24 19 18 16 9 6 5 3 4 5 5 4 7 7 12 13 13 12 15 19 20 20 17 18 19 21 22 23 25
31 29 30 33 31 28 28 27 24 22 20 18 11 7 4 2 4 5 4 5 5 8 13 13 10 12 14 18 22 23 19 15 17 20 21 24 25 26
26 26 25 24 25 25 24 25 25 21 16 11 7 4 5 6 6 7 7 4 4 9 14 13 12 15 19 21 20 14 14 17 20 23 26 25 25 25
28 21 17 16 16 18 17 17 16 15 14 10 8 14 14 12 12 14 15 9 6 12 18 9 12 17 23 22 16 12 16 19 22 26 24 26 29 30
27 23 17 11 10 10 13 14 14 12 12 17 23 17 18 12 9 12 11 8 3 9 16 5 14 17 27 19 11 11 18 23 26 26 26 29 29 29
22 21 20 19 19 23 27 28 28 25 24 25 24 21 16 12 10 7 6 5 5 5 15 4 11 16 24 14 11 14 26 28 29 26 31 30 30 30
18 18 21 24 26 26 29 35 35 33 27 26 24 20 15 13 11 7 12 10 3 5 15 11 11 19 13 9 10 25 32 29 29 30 32 32 31 30
26 27 26 29 27 27 31 30 27 22 20 18 17 17 16 19 18 17 14 11 5 3 13 12 13 17 9 5 17 30 32 35 32 34 31 30 28 30
31 31 29 27 28 26 25 27 28 22 19 17 17 15 14 14 14 15 15 14 9 5 10 12 8 12 8 15 18 27 23 31 32 31 27 25 27 32
35 34 32 29 28 25 25 24 22 19 19 19 17 14 15 15 13 13 12 12 9 7 9 9 7 11 14 19 15 25 29 29 27 26 25 32 33 32
37 37 35 32 31 27 21 19 20 23 22 22 16 15 14 10 11 12 13 12 10 11 10 11 10 13 14 17 21 30 29 23 21 26 34 31 33 35
38 32 30 31 28 26 24 24 21 21 22 21 17 14 12 12 14 14 16 17 13 16 16 16 15 15 19 21 25 32 23 18 35 33 35 35 36 31
39 33 28 27 26 22 23 23 20 19 21 18 15 14 13 13 14 14 15 16 13 16 23 26 24 22 16 20 27 22 28 27 29 33 36 37 36 32
32 30 23 20 20 19 20 20 18 18 16 16 15 13 13 14 12 12 14 16 15 14 15 20 24 27 25 15 11 20 22 27 34 32 29 29 36 40
27 25 22 20 20 21 21 20 17 15 14 15 14 13 12 11 11 13 15 16 15 15 15 18 18 19 16 9 15 10 25 31 31 29 26 25 29 39
25 25 24 20 20 21 19 18 16 14 14 13 12 11 10 11 12 12 13 16 16 16 17 16 16 16 16 12 19 38 26 27 25 30 32 31 26 22
20 23 22 20 18 18 17 16 14 13 12 10 8 9 10 10 10 11 13 14 16 14 15 17 20 21 20 20 16 21 35 23 21 27 29 24 15 14
22 21 18 17 16 15 14 12 12 9 8 7 7 8 7 9 11 12 13 15 16 14 16 21 23 21 16 14 20 24 27 36 27 16 14 8 8 6
19 18 17 14 12 11 11 9 9 7 5 5 5 5 5 9 10 10 12 14 15 17 18 23 25 19 16 14 18 23 24 27 29 26 22 16 15 12

GFSNE_925_spd_114.txt.gz
Wind_Speed
32 28 23 19 16 14 11 9 9 6 7 5 5 7 2 8 8 6 7 10 13 16 17 16 12 10 11 10 8 6 5 6 7 9 11 14 17 18
27 26 22 17 16 14 13 6 5 7 6 5 4 3 2 9 9 8 5 8 8 7 6 7 7 5 2 1 3 6 7 9 11 13 14 15 17 19
27 27 23 23 22 19 18 13 10 8 10 6 7 5 3 8 8 6 7 4 2 6 6 6 5 5 7 9 10 11 11 11 11 13 14 17 18 19
28 28 26 26 25 27 22 22 20 14 12 10 6 9 9 9 11 10 7 8 8 12 10 8 8 8 10 11 11 9 6 9 11 14 15 18 19 19
35 30 27 24 24 18 20 24 19 22 19 17 13 12 8 13 15 13 10 9 9 9 4 5 6 6 9 9 7 7 10 11 12 17 21 21 19 20
30 31 30 31 30 28 25 26 24 24 22 19 17 13 12 14 18 16 12 10 8 5 1 3 5 6 8 9 6 7 9 13 19 21 19 22 21 23
29 29 30 29 27 27 29 29 28 26 24 20 17 10 10 12 15 14 9 11 8 4 1 4 6 6 8 9 7 8 10 18 21 19 20 19 22 25
33 33 32 31 31 30 31 33 31 29 26 25 15 9 10 11 12 14 16 9 3 3 4 4 3 4 6 5 8 7 13 16 21 19 21 22 24 25
33 34 29 25 27 24 23 22 20 20 21 21 17 13 14 14 16 15 12 11 5 4 3 0 4 6 8 7 11 11 15 19 20 21 22 24 25 25
33 34 32 27 23 20 17 13 9 6 7 12 15 16 19 19 16 16 14 14 9 6 6 1 6 9 9 5 11 17 17 20 20 22 24 25 25 27
26 28 27 26 23 23 22 24 27 30 28 28 29 27 24 20 18 17 13 11 5 2 7 2 6 11 7 4 9 16 17 17 20 23 22 23 24 28
22 22 23 24 25 26 27 32 35 28 31 30 29 27 23 19 17 15 11 10 8 6 6 3 6 9 6 6 14 15 15 19 22 23 23 24 26 26
24 21 23 27 27 26 28 30 32 32 30 29 26 22 18 18 13 12 11 9 9 9 4 4 3 7 6 11 13 9 17 19 19 18 18 22 24 23
28 30 31 30 29 29 30 34 33 32 28 26 21 17 14 12 11 11 11 12 11 9 4 4 2 7 9 13 8 17 18 18 16 16 21 19 18 19
35 38 37 37 37 36 34 30 29 27 22 19 17 15 13 12 11 10 9 8 8 6 4 4 5 8 9 11 14 16 18 18 10 20 20 18 18 19
42 37 38 40 39 35 31 26 20 15 17 18 17 14 13 11 10 7 6 5 5 5 4 5 8 11 12 11 13 14 14 13 19 17 19 17 15 15
44 39 32 28 28 27 25 22 20 17 16 17 16 13 12 10 8 6 7 6 4 4 5 8 10 12 11 13 12 10 14 14 15 17 17 16 14 15
35 29 26 20 20 19 21 19 17 17 15 13 14 13 11 9 9 7 6 4 4 5 7 10 13 14 12 6 7 9 12 15 16 15 14 16 17 17
25 25 23 20 19 17 17 17 17 14 13 13 12 10 9 8 8 7 5 3 4 6 8 9 12 15 13 8 9 9 12 17 17 14 14 15 18 18
22 21 21 18 16 16 16 15 15 13 12 13 12 9 8 7 7 5 4 6 5 6 7 7 9 12 12 12 14 17 16 15 14 16 16 17 19 16
18 19 18 17 17 17 16 14 13 12 11 11 10 8 7 5 5 4 4 5 7 6 7 9 10 14 13 14 14 15 15 14 14 16 17 17 15 13
17 16 15 15 16 15 14 13 14 11 10 9 8 7 5 5 4 4 5 5 5 7 8 11 11 12 12 12 14 17 18 18 17 14 14 11 11 9
17 16 14 14 14 13 12 11 10 10 8 7 6 5 4 4 4 3 3 5 6 8 9 13 12 12 12 12 14 17 18 18 18 17 12 11 15 17

GFSNE_925_spd_117.txt.gz
Wind_Speed
34 29 28 21 17 13 12 13 17 9 8 12 6 10 12 11 9 7 8 11 12 11 11 11 10 8 9 9 6 4 3 3 5 9 11 13 16 17
35 35 33 23 19 16 13 13 13 11 7 9 8 13 9 10 9 7 6 10 8 7 8 7 6 4 2 4 4 4 4 6 7 10 12 14 15 16
32 32 29 25 22 19 17 15 16 12 9 8 14 9 8 7 9 9 9 6 7 8 7 5 4 5 5 6 6 5 7 9 11 12 14 15 16 16
32 29 27 27 24 21 19 18 16 16 11 11 13 14 10 11 11 12 10 10 10 9 7 6 6 5 6 6 5 6 8 10 11 13 15 17 17 18
29 30 29 26 24 20 22 22 21 21 18 17 14 18 12 18 17 13 13 13 10 9 7 6 5 5 5 6 7 8 8 9 13 15 15 16 16 18
29 32 31 28 23 20 21 21 20 20 22 21 16 16 15 15 18 19 17 15 12 8 4 3 3 3 5 6 2 5 6 10 14 15 15 16 17 18
27 27 28 29 23 26 26 25 23 22 19 18 17 14 14 14 23 24 16 17 10 9 6 2 1 1 3 3 5 7 6 11 15 15 16 17 19 20
28 28 27 29 31 27 25 23 23 23 24 22 19 16 23 21 24 23 22 12 5 7 6 2 2 3 2 4 7 3 10 11 15 15 16 18 19 21
26 29 28 27 28 28 27 26 25 27 31 29 26 20 21 23 26 23 19 14 7 8 6 3 0 1 5 6 6 8 11 11 13 14 17 18 19 21
33 33 35 33 30 29 24 18 12 9 8 11 13 14 13 18 20 22 21 18 16 9 6 1 1 3 4 4 7 10 11 12 12 16 16 17 18 22
28 29 32 32 29 27 26 23 21 23 23 18 19 19 20 20 20 24 23 18 6 4 3 2 1 5 3 3 3 9 11 12 14 15 15 16 18 20
19 20 22 25 24 24 25 28 31 26 27 29 29 29 26 24 21 18 14 11 9 7 1 1 2 5 3 2 7 8 8 12 14 13 13 15 16 15
18 16 15 19 22 22 23 25 29 32 33 33 33 30 26 22 18 14 12 8 8 8 5 3 2 3 4 6 8 5 13 14 13 13 15 15 18 16
24 25 25 24 23 20 22 30 31 34 32 32 30 26 21 19 15 13 11 11 13 11 8 7 3 4 5 8 6 12 13 12 11 12 16 16 14 14
33 34 34 36 36 35 30 28 29 27 24 22 22 18 14 16 15 13 12 10 11 9 6 6 3 4 5 6 9 12 14 13 7 15 14 14 13 13
42 35 37 39 38 34 31 28 26 23 22 18 17 16 13 12 12 9 8 6 6 4 5 3 4 6 7 7 8 10 10 10 14 14 15 14 12 11
42 38 33 29 29 28 27 25 24 22 17 16 14 14 13 11 9 8 7 5 5 4 4 4 6 8 7 8 7 7 10 11 13 15 15 15 14 14
32 30 24 24 23 19 21 18 16 17 15 14 14 13 13 10 7 7 6 4 5 4 5 6 9 10 8 3 3 6 9 11 14 14 13 14 15 15
28 22 22 21 19 18 18 18 16 15 14 14 13 12 11 9 6 6 6 5 5 4 5 6 8 11 10 6 9 7 9 13 14 13 13 14 17 21
23 19 20 19 19 17 17 16 14 14 13 13 12 11 9 8 7 6 5 5 4 4 5 5 8 10 9 8 11 16 13 10 13 15 16 16 18 19
20 19 18 18 17 17 18 15 14 13 12 11 10 9 8 7 6 5 4 5 5 5 6 8 10 13 10 11 13 14 14 14 12 15 16 15 14 16
18 18 17 16 16 16 15 15 15 13 11 10 9 8 7 6 5 4 4 4 5 6 7 9 10 10 11 12 14 16 17 16 16 13 14 15 13 8
16 16 16 15 15 15 14 13 12 11 9 9 8 7 6 5 3 3 4 4 5 6 8 11 11 11 12 13 14 16 16 16 15 16 16 14 16 19

GFSNE_925_spd_123.txt.gz
Wind_Speed
38 42 32 34 31 31 32 32 22 7 9 13 8 17 26 25 25 24 22 21 19 15 13 11 9 7 10 12 14 12 10 7 6 3 3 7 8 9
40 40 38 35 36 31 39 35 30 22 8 15 10 24 24 24 22 21 20 19 15 15 13 10 9 10 12 14 13 11 8 7 5 4 2 4 7 8
32 39 40 37 38 33 28 39 34 30 15 8 25 27 25 25 22 19 18 16 13 10 10 10 11 10 15 13 10 8 7 4 2 3 4 5 7 7
36 38 41 42 34 31 24 30 33 34 27 21 24 20 22 21 21 19 16 14 13 13 13 12 13 12 12 11 9 7 5 5 3 3 4 5 6 8
29 33 37 37 38 28 19 18 32 34 33 25 18 23 22 23 23 19 16 14 11 12 13 14 15 14 12 10 8 7 6 5 5 4 5 5 6 7
28 35 36 45 41 35 26 25 27 33 31 28 23 27 26 24 24 25 19 18 17 14 12 13 15 14 11 9 8 7 4 4 5 5 5 6 6 7
23 30 33 34 40 38 35 31 24 26 27 23 22 17 20 21 29 26 20 25 20 19 15 12 12 12 11 10 6 4 3 2 3 4 6 6 6 6
18 29 34 41 37 38 37 33 28 29 27 23 20 22 29 29 29 30 25 16 7 20 18 13 12 11 8 7 3 3 3 2 4 5 6 6 7 8
13 14 30 36 36 34 32 28 26 19 18 24 28 27 23 29 33 30 31 21 10 19 18 11 11 9 9 6 4 2 3 4 6 6 6 7 8 6
11 14 12 19 24 23 24 23 20 18 18 17 17 16 15 15 22 27 27 21 19 22 14 6 12 12 9 6 7 1 3 5 7 5 5 7 8 5
14 16 21 24 25 28 30 25 18 15 7 9 11 11 10 9 14 19 27 30 9 7 7 8 11 8 8 10 8 2 2 2 4 3 4 4 5 7
12 13 15 19 22 25 26 25 24 20 16 15 16 17 15 15 15 14 26 24 19 7 15 8 13 11 5 10 5 3 3 1 1 2 3 3 3 3
16 14 13 16 23 24 26 28 28 26 24 24 26 25 23 21 20 19 17 18 16 9 18 12 13 9 5 7 6 4 1 2 1 2 3 4 4 2
22 20 19 16 17 18 20 26 31 28 28 30 30 29 28 26 24 23 19 17 13 23 19 11 9 8 6 4 3 1 3 4 4 1 6 7 3 2
25 28 28 27 27 28 31 31 30 30 31 29 26 25 27 26 27 27 25 25 23 20 17 15 14 14 10 6 2 0 2 2 4 8 10 6 3 4
38 32 32 32 32 31 29 29 29 30 31 30 27 26 26 25 26 26 26 25 25 21 16 14 12 9 7 5 3 4 3 1 9 12 11 6 5 3
42 34 28 29 30 30 30 29 31 30 30 31 28 26 24 24 22 20 16 16 20 17 14 10 6 4 2 3 2 4 4 6 10 10 10 11 5 4
32 27 27 25 22 25 26 26 27 28 28 27 23 23 23 23 19 16 18 20 20 15 12 8 8 8 6 6 3 5 8 8 10 9 10 14 14 9
29 23 25 26 22 22 23 23 23 23 24 23 25 25 25 23 22 21 19 18 16 13 13 8 10 9 4 1 2 5 10 11 12 13 13 13 16 13
25 23 23 23 23 24 23 23 26 25 24 25 23 22 21 21 21 19 17 16 13 16 14 10 10 9 5 1 3 9 7 12 14 14 18 17 16 14
22 23 24 24 25 26 26 25 27 26 24 23 22 21 18 18 18 17 15 12 12 13 11 8 5 4 4 4 6 7 12 9 9 15 14 16 16 16
24 24 25 26 26 26 25 25 25 23 22 21 20 18 16 16 17 16 13 10 8 7 7 2 1 3 5 7 10 11 14 16 10 6 7 10 9 6
25 25 25 24 23 23 22 23 22 22 20 19 19 18 16 15 14 12 11 9 7 6 4 4 3 3 5 9 10 13 15 14 15 18 19 12 11 14

GFSNE_925_spd_129.txt.gz
Wind_Speed
32 34 33 29 29 31 28 29 19 9 8 14 13 32 34 33 33 31 30 28 28 27 28 27 24 22 20 17 19 19 18 20 19 14 9 7 3 2
32 31 33 31 31 32 33 32 28 23 7 10 15 23 32 31 32 31 30 30 30 30 28 26 24 21 21 22 21 22 21 19 15 11 6 5 4 4
30 30 32 32 29 31 34 34 29 24 8 5 18 20 27 29 28 27 27 27 26 27 26 24 22 24 27 24 22 23 20 16 12 7 7 6 4 4
30 29 30 32 35 30 32 32 34 33 21 13 15 21 24 28 29 28 25 24 24 24 25 25 26 26 27 25 22 22 17 13 9 7 6 5 5 3
28 29 26 28 31 35 36 37 37 33 30 21 13 23 21 28 28 26 25 24 23 25 25 25 27 28 24 23 18 16 13 10 8 7 6 5 4 4
26 26 26 28 29 31 34 36 35 34 30 28 20 25 22 27 31 32 26 25 25 23 23 23 21 20 18 16 13 10 9 8 6 4 4 5 4 4
25 28 30 32 33 33 34 38 39 33 30 28 23 19 19 25 31 28 21 27 22 24 24 20 20 18 14 12 13 11 9 8 5 4 3 2 2 4
22 23 26 27 28 31 38 36 38 38 33 25 25 23 25 26 27 35 30 17 7 22 26 22 21 18 16 15 13 12 9 6 4 3 2 2 3 5
19 21 23 23 21 26 30 43 40 40 46 40 31 31 28 39 39 34 31 21 13 24 30 19 21 21 18 15 14 13 8 7 4 3 3 3 3 5
13 12 12 11 14 17 22 27 31 35 36 37 39 41 39 44 44 39 36 25 16 24 25 7 23 18 18 14 16 15 12 8 4 5 4 3 2 7
10 8 7 4 11 19 26 26 26 23 22 32 28 30 28 30 39 36 32 28 7 12 22 12 18 16 16 15 15 12 10 8 6 5 5 5 4 6
9 6 4 3 9 21 25 31 25 22 25 24 23 25 26 29 35 34 34 28 15 6 20 12 26 16 8 15 17 14 11 11 10 9 8 7 7 9
11 9 8 9 16 17 18 19 26 26 24 25 24 22 19 20 21 20 22 26 19 7 24 18 20 16 8 9 19 16 11 12 12 10 9 9 10 11
14 13 11 10 11 9 13 15 26 24 24 26 26 23 22 19 16 15 14 14 11 8 29 19 16 21 13 8 7 15 15 13 12 13 12 10 9 10
15 18 19 17 16 18 19 22 23 22 24 26 26 25 24 24 24 25 23 23 25 23 18 14 22 21 19 13 12 15 15 11 11 10 9 11 13 12
27 21 20 21 21 21 22 19 19 21 23 28 29 30 29 30 31 31 33 30 31 24 15 17 17 16 13 15 19 18 10 6 8 7 9 10 10 11
22 22 20 22 26 24 23 22 22 24 29 29 29 28 30 30 28 26 21 20 22 20 21 19 18 16 15 16 16 11 8 4 2 4 5 7 6 8
23 24 21 18 18 21 24 27 25 26 27 28 27 27 24 22 23 24 25 25 25 21 20 19 19 19 16 12 8 8 5 3 1 3 5 8 9 4
24 24 20 20 19 20 24 24 25 26 27 26 24 22 25 25 26 26 26 26 24 21 16 16 12 12 4 2 4 4 3 1 5 5 5 8 14 13
26 23 21 22 20 19 23 24 27 25 25 28 28 26 25 26 27 25 24 25 23 20 18 15 11 7 5 5 4 4 4 6 7 10 13 14 15 14
23 24 23 22 21 22 24 25 25 25 26 26 24 25 24 24 23 22 22 20 19 16 15 12 9 7 7 5 3 2 4 6 7 8 10 14 12 12
22 23 22 23 23 23 24 25 26 25 24 23 22 21 20 20 21 21 19 18 15 13 12 9 7 5 5 5 5 4 7 10 8 8 9 10 10 6
22 23 22 22 22 22 22 23 24 23 21 20 19 18 18 20 18 17 16 14 12 10 7 7 6 7 7 5 4 6 7 12 14 17 12 7 10 13

GFSNE_925_spd_132.txt.gz
Wind_Speed
30 31 32 29 31 30 30 26 18 5 8 16 19 39 41 37 36 34 35 33 31 31 32 32 31 28 25 21 19 20 24 22 21 20 18 14 10 8
30 29 30 28 27 29 32 30 28 24 7 20 26 24 39 37 35 35 33 32 32 31 31 32 31 27 26 24 24 28 25 24 18 18 16 12 8 5
29 28 30 30 28 27 28 30 30 27 14 8 23 28 31 35 36 34 33 33 32 32 31 32 31 30 29 27 30 29 27 23 19 16 10 7 7 6
26 25 27 25 28 28 27 30 29 31 29 16 21 24 24 33 32 30 29 29 30 30 33 32 31 31 31 31 32 30 25 21 16 14 11 8 6 5
26 26 28 26 29 30 33 29 30 31 31 20 17 28 21 30 30 26 25 24 24 27 26 29 31 34 35 35 32 29 25 19 13 10 8 7 7 7
23 25 25 25 26 25 24 26 27 29 31 26 21 23 25 30 33 33 28 27 27 28 30 32 34 33 32 30 25 16 15 14 10 9 9 8 8 7
23 25 26 27 29 29 28 23 27 30 29 26 24 17 19 23 31 28 22 31 28 28 28 25 25 24 20 17 16 15 13 12 11 11 9 9 7 6
20 20 20 21 23 26 29 32 34 24 28 26 28 27 29 30 29 36 31 20 7 25 28 24 23 22 20 16 14 13 15 13 12 11 8 7 7 7
16 16 19 21 22 24 30 31 33 35 41 38 35 33 31 43 42 35 31 27 16 30 33 21 23 22 20 16 15 18 16 13 11 9 6 6 7 8
15 15 16 16 16 19 20 23 25 28 35 43 44 46 47 49 54 48 43 26 17 28 30 9 25 19 20 17 15 18 15 15 10 9 7 6 6 6
15 14 14 14 14 16 13 15 10 8 12 40 32 35 41 42 49 39 33 27 8 14 29 14 20 18 19 17 16 17 15 14 10 7 6 6 4 6
13 10 12 12 10 9 9 13 14 10 14 20 20 24 27 33 38 35 43 30 15 7 27 15 24 15 8 17 18 17 17 15 9 8 7 7 6 7
11 8 5 6 7 12 10 11 13 15 18 23 24 24 26 26 23 23 30 31 27 7 26 24 21 19 8 9 21 18 16 15 11 9 8 8 9 8
13 8 6 6 8 8 12 11 17 18 20 23 24 23 21 21 17 15 17 18 17 7 27 26 15 26 14 9 8 20 17 12 11 12 11 10 10 10
13 16 18 15 14 15 17 20 20 19 22 24 25 23 22 22 22 21 21 21 22 22 25 15 13 27 19 15 12 15 17 11 12 11 10 9 11 12
19 15 12 12 14 17 17 15 14 18 22 26 26 27 25 25 25 25 31 32 33 24 16 12 18 21 16 15 18 18 12 7 11 8 8 10 12 13
16 17 14 16 19 20 18 18 19 21 25 27 29 29 29 30 27 24 23 23 24 23 25 22 19 17 17 18 19 17 12 8 5 3 5 7 7 9
17 22 19 16 19 19 20 21 22 25 25 28 26 27 26 26 26 26 25 23 24 22 25 25 27 28 22 19 12 13 9 7 3 1 4 6 8 4
24 20 19 20 20 20 23 21 23 25 28 27 27 26 27 26 25 23 25 27 23 23 23 21 18 15 7 3 7 7 7 4 1 2 3 6 12 13
22 19 20 21 22 22 23 24 24 26 28 27 26 25 25 26 25 24 24 25 24 22 19 14 11 6 6 6 6 8 6 3 3 5 7 10 13 11
21 21 21 21 22 23 24 25 25 28 28 27 25 24 25 26 25 25 25 24 23 21 19 16 14 13 14 13 11 7 5 5 5 6 9 11 9 9
22 22 21 22 23 24 26 27 27 26 25 24 24 23 23 23 25 24 22 22 19 19 18 14 11 9 9 9 8 5 4 7 5 4 6 6 6 5
22 21 21 21 22 23 24 25 25 24 23 23 22 22 21 23 21 20 19 18 16 14 12 12 11 11 11 9 7 6 6 10 13 13 6 6 8 10

GFSNE_925_spd_135.txt.gz
Wind_Speed
32 32 30 23 21 22 23 22 18 5 8 16 13 30 42 40 39 36 35 37 36 35 35 37 34 31 30 27 25 24 19 22 26 23 22 21 17 12
31 30 30 26 22 22 24 25 23 20 6 23 21 23 35 44 44 38 35 36 37 36 37 36 36 35 33 29 27 25 24 27 28 26 23 20 16 13
29 28 28 27 24 22 24 24 21 23 14 13 25 30 30 37 46 42 40 37 37 36 38 37 36 35 36 33 31 30 30 35 32 27 21 17 12 9
28 27 27 24 25 23 22 22 24 23 24 18 22 29 32 35 42 44 42 39 37 36 37 38 38 38 38 36 35 35 36 39 32 24 21 15 13 11
24 26 25 23 22 21 23 23 24 25 27 25 17 27 27 30 33 35 37 35 34 35 34 37 38 37 37 37 37 40 40 35 28 23 17 14 13 11
22 23 24 24 21 21 24 26 26 27 28 27 18 20 23 26 28 30 27 26 26 25 27 30 33 35 37 40 42 41 37 31 23 17 16 15 12 11
22 23 22 21 20 22 20 19 18 20 22 23 16 18 18 17 29 28 20 32 26 26 33 33 38 38 37 40 35 30 22 19 17 16 15 14 12 13
21 21 20 21 21 22 23 24 24 23 23 22 22 21 27 29 30 32 28 19 7 28 29 32 32 35 31 27 25 21 18 16 15 14 15 14 14 13
18 17 17 17 17 20 21 24 28 31 35 34 24 26 27 36 38 33 33 31 14 33 31 18 24 26 24 21 18 19 18 16 16 16 14 13 12 11
15 15 16 15 16 19 20 22 23 23 25 31 36 36 43 41 49 49 42 28 18 35 31 8 23 18 21 19 18 18 18 18 15 14 14 12 11 11
15 15 15 16 17 17 16 16 15 16 17 23 26 26 39 39 44 33 30 28 8 18 30 13 21 18 19 19 17 17 18 17 17 14 13 10 9 7
16 15 16 16 16 17 12 9 10 10 8 6 2 12 20 27 33 37 37 31 14 6 30 15 26 16 8 18 19 18 16 17 14 15 13 9 8 7
15 11 9 10 11 11 6 7 7 6 6 12 16 19 24 27 22 21 31 23 17 5 29 28 22 20 9 10 20 20 20 17 12 12 10 9 10 10
11 6 2 2 3 6 8 6 7 9 10 15 17 17 18 19 15 16 19 18 17 7 29 26 15 26 16 11 10 22 18 18 14 11 9 10 12 11
13 16 13 10 9 8 9 8 11 10 14 19 19 18 17 20 20 20 18 17 18 20 24 13 17 28 23 17 15 20 18 14 14 9 9 8 7 7
13 11 12 11 11 12 11 8 8 9 16 22 22 20 19 21 22 22 28 29 33 26 17 14 17 23 19 18 18 21 15 7 11 8 8 7 7 7
14 14 16 15 16 16 15 14 14 14 20 22 25 23 22 24 24 23 22 25 25 23 26 25 23 23 22 20 20 17 14 12 9 6 4 4 5 5
17 18 19 19 19 18 18 18 20 20 22 24 23 24 22 23 24 25 26 25 25 23 23 23 26 27 25 24 15 14 11 10 6 4 2 2 3 3
20 18 19 20 18 18 20 19 22 22 22 26 24 26 26 21 23 24 25 24 23 20 17 15 12 11 12 7 9 11 10 7 5 3 0 2 5 6
19 18 17 17 15 14 14 15 18 21 22 22 23 23 24 23 20 21 19 20 21 18 17 12 11 9 12 7 8 8 8 6 4 2 2 4 7 7
18 18 17 16 16 17 17 17 20 22 23 22 21 19 18 20 19 19 20 20 19 16 17 15 15 16 17 14 14 10 6 6 4 3 4 5 5 4
17 17 17 17 16 17 18 21 22 23 23 19 17 17 18 22 21 19 17 17 16 16 16 13 10 9 10 11 11 7 5 5 4 3 1 0 3 4
16 18 19 18 17 17 17 18 16 14 15 15 15 16 17 18 17 17 16 15 14 14 13 13 12 12 12 11 10 8 6 6 6 5 1 6 6 8